LAN123 SCDA-SPZO

Flight info

Callsign LAN123
Flight time 1h 7m
Altitude 36000
Route SIRAM1K SIRAM DCT LITOT
Aircraft A320/M-SDE3FGHIRWY/LB1

Departure

Time 2026-04-27 12:41
Airport Diego Aracena International Airport (SCDA)

Arrival

Time 2026-04-27 13:48
Airport Alejandro Velasco Astete International Airport (SPZO)
Time Latitude Longitude Altitude Speed Heading
2026-04-27 12:31 -20.54666 -70.17911 174 ft 0 kts 95°
2026-04-27 12:32 -20.54666 -70.17910 174 ft 0 kts 95°
2026-04-27 12:32 -20.54666 -70.17912 174 ft 2 kts 95°
2026-04-27 12:33 -20.54664 -70.17930 174 ft 2 kts 95°
2026-04-27 12:33 -20.54663 -70.17948 174 ft 2 kts 95°
2026-04-27 12:33 -20.54661 -70.17966 174 ft 2 kts 95°
2026-04-27 12:33 -20.54660 -70.17985 174 ft 3 kts 72°
2026-04-27 12:34 -20.54669 -70.18001 174 ft 3 kts 36°
2026-04-27 12:34 -20.54684 -70.18009 174 ft 0 kts
2026-04-27 12:36 -20.54682 -70.18009 174 ft 2 kts
2026-04-27 12:36 -20.54634 -70.18008 174 ft 14 kts
2026-04-27 12:36 -20.54488 -70.18003 174 ft 27 kts
2026-04-27 12:36 -20.54259 -70.17991 174 ft 38 kts
2026-04-27 12:37 -20.53968 -70.17976 175 ft 45 kts
2026-04-27 12:37 -20.53642 -70.17959 175 ft 47 kts
2026-04-27 12:37 -20.53323 -70.17942 175 ft 45 kts
2026-04-27 12:37 -20.53034 -70.17925 174 ft 38 kts
2026-04-27 12:38 -20.52865 -70.17915 174 ft 17 kts
2026-04-27 12:38 -20.52805 -70.17996 174 ft 15 kts 283°
2026-04-27 12:38 -20.52743 -70.18078 175 ft 16 kts 349°
2026-04-27 12:38 -20.52614 -70.18076 175 ft 22 kts
2026-04-27 12:39 -20.52455 -70.18069 175 ft 24 kts
2026-04-27 12:39 -20.52282 -70.18057 174 ft 26 kts
2026-04-27 12:39 -20.52132 -70.18085 175 ft 20 kts 330°
2026-04-27 12:39 -20.52034 -70.18084 175 ft 14 kts 57°
2026-04-27 12:40 -20.52092 -70.18047 175 ft 17 kts 183°
2026-04-27 12:40 -20.52444 -70.18067 175 ft 87 kts 183°
2026-04-27 12:40 -20.53256 -70.18111 174 ft 144 kts 183°
2026-04-27 12:40 -20.54376 -70.18163 469 ft 167 kts 182°
2026-04-27 12:41 -20.55523 -70.18348 1158 ft 170 kts 211°
2026-04-27 12:41 -20.56234 -70.19355 1729 ft 184 kts 259°
2026-04-27 12:41 -20.55984 -70.20739 2055 ft 208 kts 306°
2026-04-27 12:41 -20.54865 -70.21841 2466 ft 232 kts 324°
2026-04-27 12:42 -20.53470 -70.22872 2986 ft 254 kts 327°
2026-04-27 12:42 -20.51959 -70.23917 3814 ft 262 kts 328°
2026-04-27 12:42 -20.50414 -70.24981 4736 ft 267 kts 328°
2026-04-27 12:42 -20.48846 -70.26075 5618 ft 271 kts 327°
2026-04-27 12:43 -20.47267 -70.27194 6516 ft 274 kts 327°
2026-04-27 12:43 -20.45678 -70.28336 7314 ft 277 kts 327°
2026-04-27 12:43 -20.44068 -70.29502 8089 ft 282 kts 326°
2026-04-27 12:43 -20.42436 -70.30690 8859 ft 286 kts 326°
2026-04-27 12:44 -20.40779 -70.31896 9630 ft 290 kts 326°
2026-04-27 12:44 -20.39097 -70.33124 10275 ft 299 kts 326°
2026-04-27 12:44 -20.37288 -70.34389 10473 ft 322 kts 331°
2026-04-27 12:44 -20.35184 -70.35338 10901 ft 334 kts 343°
2026-04-27 12:45 -20.32907 -70.35969 11505 ft 341 kts 346°
2026-04-27 12:45 -20.30591 -70.36599 12138 ft 346 kts 346°
2026-04-27 12:45 -20.28239 -70.37239 12762 ft 351 kts 345°
2026-04-27 12:45 -20.25854 -70.37890 13377 ft 357 kts 345°
2026-04-27 12:46 -20.23433 -70.38549 13991 ft 361 kts 345°
2026-04-27 12:46 -20.20986 -70.39217 14556 ft 365 kts 345°
2026-04-27 12:46 -20.18518 -70.39891 15136 ft 368 kts 345°
2026-04-27 12:46 -20.16025 -70.40573 15715 ft 371 kts 345°
2026-04-27 12:47 -20.14366 -70.41025 16097 ft 373 kts 345°
2026-04-27 12:47 -20.11845 -70.41711 16682 ft 376 kts 345°
2026-04-27 12:47 -20.09301 -70.42404 17270 ft 379 kts 345°
2026-04-27 12:47 -20.06738 -70.43101 17849 ft 382 kts 345°
2026-04-27 12:48 -20.04146 -70.43805 18422 ft 385 kts 345°
2026-04-27 12:48 -20.01543 -70.44514 18922 ft 388 kts 345°
2026-04-27 12:48 -19.98924 -70.45228 19446 ft 389 kts 345°
2026-04-27 12:48 -19.96293 -70.45945 19974 ft 391 kts 345°
2026-04-27 12:49 -19.93651 -70.46662 20493 ft 393 kts 345°
2026-04-27 12:49 -19.90996 -70.47380 20996 ft 395 kts 344°
2026-04-27 12:49 -19.88315 -70.48105 21492 ft 397 kts 344°
2026-04-27 12:49 -19.85630 -70.48833 21977 ft 400 kts 344°
2026-04-27 12:50 -19.82926 -70.49568 22456 ft 402 kts 344°
2026-04-27 12:50 -19.80211 -70.50307 22933 ft 404 kts 343°
2026-04-27 12:50 -19.77476 -70.51051 23399 ft 407 kts 343°
2026-04-27 12:50 -19.74723 -70.51798 23819 ft 409 kts 343°
2026-04-27 12:51 -19.71956 -70.52548 24188 ft 412 kts 343°
2026-04-27 12:51 -19.69171 -70.53299 24559 ft 414 kts 343°
2026-04-27 12:51 -19.66365 -70.54055 24928 ft 417 kts 343°
2026-04-27 12:51 -19.63550 -70.54815 25285 ft 419 kts 343°
2026-04-27 12:52 -19.60719 -70.55579 25648 ft 422 kts 343°
2026-04-27 12:52 -19.57903 -70.56340 25995 ft 424 kts 343°
2026-04-27 12:52 -19.55039 -70.57116 26350 ft 426 kts 343°
2026-04-27 12:52 -19.52154 -70.57898 26713 ft 429 kts 343°
2026-04-27 12:53 -19.46344 -70.59467 27409 ft 433 kts 343°
2026-04-27 12:53 -19.43412 -70.60260 27754 ft 436 kts 343°
2026-04-27 12:53 -19.40466 -70.61054 28095 ft 438 kts 343°
2026-04-27 12:54 -19.37500 -70.61848 28439 ft 440 kts 343°
2026-04-27 12:54 -19.34525 -70.62642 28783 ft 443 kts 343°
2026-04-27 12:54 -19.31529 -70.63444 29110 ft 445 kts 342°
2026-04-27 12:54 -19.28514 -70.64251 29455 ft 447 kts 342°
2026-04-27 12:55 -19.25490 -70.65058 29786 ft 450 kts 342°
2026-04-27 12:55 -19.22447 -70.65869 30111 ft 452 kts 342°
2026-04-27 12:55 -19.19393 -70.66686 30387 ft 454 kts 342°
2026-04-27 12:55 -19.16330 -70.67510 30671 ft 455 kts 342°
2026-04-27 12:56 -19.13249 -70.68338 30950 ft 457 kts 342°
2026-04-27 12:56 -19.10165 -70.69162 31228 ft 458 kts 342°
2026-04-27 12:56 -19.07067 -70.69989 31496 ft 459 kts 342°
2026-04-27 12:56 -19.03971 -70.70817 31859 ft 458 kts 342°
2026-04-27 12:57 -19.00877 -70.71641 32268 ft 457 kts 342°
2026-04-27 12:57 -18.97801 -70.72459 32669 ft 455 kts 342°
2026-04-27 12:57 -18.94773 -70.73265 33059 ft 453 kts 342°
2026-04-27 12:57 -18.91677 -70.74090 33466 ft 452 kts 342°
2026-04-27 12:58 -18.88668 -70.74892 33860 ft 451 kts 342°
2026-04-27 12:58 -18.85630 -70.75700 34241 ft 449 kts 342°
2026-04-27 12:58 -18.82607 -70.76504 34594 ft 447 kts 342°
2026-04-27 12:58 -18.79593 -70.77308 34963 ft 445 kts 342°
2026-04-27 12:59 -18.76600 -70.78107 35314 ft 443 kts 342°
2026-04-27 12:59 -18.73624 -70.78902 35653 ft 441 kts 342°
2026-04-27 12:59 -18.70654 -70.79694 35969 ft 439 kts 342°
2026-04-27 12:59 -18.67697 -70.80480 36067 ft 436 kts 342°
2026-04-27 13:00 -18.61863 -70.82026 36091 ft 430 kts 342°
2026-04-27 13:00 -18.56061 -70.83563 36088 ft 429 kts 342°
2026-04-27 13:01 -18.50203 -70.85121 36088 ft 440 kts 342°
2026-04-27 13:01 -18.44242 -70.86708 36089 ft 443 kts 342°
2026-04-27 13:02 -18.38261 -70.88288 36087 ft 444 kts 343°
2026-04-27 13:02 -18.32272 -70.89865 36091 ft 444 kts 343°
2026-04-27 13:03 -18.26278 -70.91449 36096 ft 444 kts 343°
2026-04-27 13:03 -18.20283 -70.93038 36102 ft 444 kts 343°
2026-04-27 13:04 -18.14280 -70.94629 36099 ft 445 kts 343°
2026-04-27 13:04 -18.08271 -70.96211 36098 ft 445 kts 343°
2026-04-27 13:05 -18.02264 -70.97799 36102 ft 445 kts 343°
2026-04-27 13:05 -17.96256 -70.99386 36111 ft 445 kts 343°
2026-04-27 13:06 -17.90242 -71.00970 36117 ft 446 kts 343°
2026-04-27 13:06 -17.84224 -71.02552 36126 ft 446 kts 343°
2026-04-27 13:07 -17.78199 -71.04134 36119 ft 446 kts 343°
2026-04-27 13:07 -17.72180 -71.05717 36116 ft 446 kts 343°
2026-04-27 13:08 -17.66201 -71.07291 36117 ft 446 kts 343°
2026-04-27 13:08 -17.60177 -71.08869 36126 ft 446 kts 343°
2026-04-27 13:09 -17.54146 -71.10453 36136 ft 446 kts 343°
2026-04-27 13:09 -17.48122 -71.12037 36156 ft 446 kts 343°
2026-04-27 13:10 -17.42092 -71.13617 36176 ft 447 kts 343°
2026-04-27 13:10 -17.36061 -71.15192 36193 ft 447 kts 343°
2026-04-27 13:11 -17.30029 -71.16766 36200 ft 447 kts 343°
2026-04-27 13:11 -17.23992 -71.18348 36208 ft 447 kts 343°
2026-04-27 13:12 -17.17954 -71.19928 36218 ft 447 kts 343°
2026-04-27 13:12 -17.11915 -71.21505 36229 ft 447 kts 343°
2026-04-27 13:13 -17.05873 -71.23079 36233 ft 448 kts 343°
2026-04-27 13:13 -16.99822 -71.24654 36245 ft 448 kts 343°
2026-04-27 13:14 -16.93769 -71.26234 36258 ft 448 kts 343°
2026-04-27 13:14 -16.87716 -71.27807 36275 ft 448 kts 343°
2026-04-27 13:15 -16.81669 -71.29383 36289 ft 448 kts 343°
2026-04-27 13:15 -16.75651 -71.30950 36305 ft 449 kts 343°
2026-04-27 13:16 -16.69590 -71.32519 36321 ft 449 kts 344°
2026-04-27 13:16 -16.63523 -71.34092 36338 ft 449 kts 343°
2026-04-27 13:17 -16.57451 -71.35670 36366 ft 449 kts 344°
2026-04-27 13:17 -16.51383 -71.37245 36391 ft 449 kts 344°
2026-04-27 13:18 -16.45315 -71.38821 36407 ft 450 kts 344°
2026-04-27 13:18 -16.39229 -71.40404 36413 ft 450 kts 344°
2026-04-27 13:19 -16.33187 -71.41976 36420 ft 450 kts 344°
2026-04-27 13:19 -16.27109 -71.43540 36425 ft 450 kts 344°
2026-04-27 13:20 -16.21029 -71.45101 36431 ft 450 kts 344°
2026-04-27 13:20 -16.14955 -71.46675 36445 ft 449 kts 344°
2026-04-27 13:21 -16.08885 -71.48248 36471 ft 449 kts 344°
2026-04-27 13:21 -16.02814 -71.49813 36505 ft 449 kts 344°
2026-04-27 13:22 -15.96748 -71.51373 36532 ft 449 kts 344°
2026-04-27 13:22 -15.90681 -71.52938 36549 ft 449 kts 344°
2026-04-27 13:23 -15.84616 -71.54506 36559 ft 449 kts 344°
2026-04-27 13:23 -15.78546 -71.56074 36569 ft 449 kts 344°
2026-04-27 13:24 -15.72465 -71.57631 36580 ft 450 kts 344°
2026-04-27 13:24 -15.66426 -71.59180 36587 ft 450 kts 344°
2026-04-27 13:25 -15.60351 -71.60744 36594 ft 450 kts 344°
2026-04-27 13:25 -15.54275 -71.62304 36592 ft 450 kts 344°
2026-04-27 13:26 -15.48197 -71.63867 36603 ft 450 kts 345°
2026-04-27 13:26 -15.42109 -71.65426 36599 ft 450 kts 345°
2026-04-27 13:27 -15.36016 -71.66981 36604 ft 451 kts 344°
2026-04-27 13:27 -15.29928 -71.68543 36609 ft 451 kts 344°
2026-04-27 13:28 -15.23840 -71.70107 36610 ft 451 kts 344°
2026-04-27 13:28 -15.17841 -71.71645 36607 ft 438 kts 344°
2026-04-27 13:29 -15.11944 -71.73146 36607 ft 435 kts 344°
2026-04-27 13:29 -15.06072 -71.74645 36602 ft 434 kts 344°
2026-04-27 13:30 -15.00202 -71.76142 36595 ft 434 kts 344°
2026-04-27 13:30 -14.95334 -71.77388 36596 ft 434 kts 344°
2026-04-27 13:31 -14.89459 -71.78884 36511 ft 435 kts 344°
2026-04-27 13:31 -14.85572 -71.79878 36192 ft 434 kts 344°
2026-04-27 13:31 -14.83589 -71.80385 36032 ft 434 kts 344°
2026-04-27 13:32 -14.80624 -71.80956 35795 ft 434 kts 353°
2026-04-27 13:32 -14.77612 -71.81002 35552 ft 434 kts
2026-04-27 13:32 -14.74635 -71.80547 35153 ft 432 kts
2026-04-27 13:32 -14.71688 -71.79952 34621 ft 431 kts
2026-04-27 13:33 -14.68746 -71.79355 34033 ft 430 kts
2026-04-27 13:33 -14.65819 -71.78761 33512 ft 427 kts
2026-04-27 13:33 -14.62909 -71.78176 32986 ft 425 kts
2026-04-27 13:33 -14.60011 -71.77595 32462 ft 423 kts
2026-04-27 13:34 -14.57125 -71.77020 31943 ft 421 kts
2026-04-27 13:34 -14.54253 -71.76444 31435 ft 419 kts
2026-04-27 13:34 -14.51399 -71.75872 31015 ft 415 kts 10°
2026-04-27 13:34 -14.48557 -71.75301 30486 ft 414 kts 10°
2026-04-27 13:35 -14.45744 -71.74737 29938 ft 410 kts 10°
2026-04-27 13:35 -14.42969 -71.74184 29398 ft 403 kts 10°
2026-04-27 13:35 -14.40277 -71.73647 29008 ft 397 kts 10°
2026-04-27 13:35 -14.37578 -71.73110 28566 ft 393 kts 10°
2026-04-27 13:36 -14.34905 -71.72579 28115 ft 390 kts 10°
2026-04-27 13:36 -14.32250 -71.72052 27649 ft 387 kts 10°
2026-04-27 13:36 -14.29614 -71.71526 27204 ft 385 kts 10°
2026-04-27 13:36 -14.26994 -71.70996 26725 ft 383 kts 11°
2026-04-27 13:37 -14.24375 -71.70469 26261 ft 382 kts 11°
2026-04-27 13:37 -14.21776 -71.69949 25765 ft 381 kts 11°
2026-04-27 13:37 -14.19177 -71.69428 25286 ft 380 kts 11°
2026-04-27 13:37 -14.16586 -71.68909 24902 ft 377 kts 11°
2026-04-27 13:38 -14.14009 -71.68396 24433 ft 375 kts 11°
2026-04-27 13:38 -14.11457 -71.67887 24063 ft 372 kts 11°
2026-04-27 13:38 -14.08925 -71.67385 23574 ft 370 kts 11°
2026-04-27 13:38 -14.06406 -71.66887 23122 ft 367 kts 11°
2026-04-27 13:39 -14.03962 -71.66320 22591 ft 361 kts 16°
2026-04-27 13:39 -14.01556 -71.65613 21894 ft 357 kts 17°
2026-04-27 13:39 -13.99250 -71.64755 21408 ft 347 kts 22°
2026-04-27 13:39 -13.97040 -71.63862 20979 ft 337 kts 21°
2026-04-27 13:40 -13.94861 -71.62988 20557 ft 333 kts 21°
2026-04-27 13:40 -13.92700 -71.62127 20132 ft 334 kts 21°
2026-04-27 13:40 -13.90502 -71.61352 19610 ft 335 kts 14°
2026-04-27 13:40 -13.88193 -71.60923 18827 ft 339 kts
2026-04-27 13:41 -13.85877 -71.60557 18268 ft 332 kts
2026-04-27 13:41 -13.83583 -71.60543 17852 ft 330 kts 357°
2026-04-27 13:41 -13.81284 -71.60667 17440 ft 331 kts 358°
2026-04-27 13:41 -13.78983 -71.60784 17029 ft 331 kts 358°
2026-04-27 13:42 -13.76691 -71.60974 16675 ft 330 kts 350°
2026-04-27 13:42 -13.74506 -71.61616 16246 ft 326 kts 337°
2026-04-27 13:42 -13.72451 -71.62576 15838 ft 322 kts 336°
2026-04-27 13:42 -13.70430 -71.63537 15447 ft 318 kts 333°
2026-04-27 13:43 -13.68602 -71.64794 15086 ft 315 kts 319°
2026-04-27 13:43 -13.67060 -71.66400 14956 ft 316 kts 313°
2026-04-27 13:43 -13.65545 -71.68041 14975 ft 318 kts 314°
2026-04-27 13:43 -13.64015 -71.69685 14854 ft 319 kts 314°
2026-04-27 13:44 -13.62506 -71.71303 14295 ft 317 kts 314°
2026-04-27 13:44 -13.61125 -71.73071 13563 ft 317 kts 302°
2026-04-27 13:44 -13.59972 -71.74933 13344 ft 300 kts 303°
2026-04-27 13:44 -13.58944 -71.76721 13213 ft 282 kts 293°
2026-04-27 13:45 -13.58220 -71.78523 13096 ft 264 kts 292°
2026-04-27 13:45 -13.57546 -71.80218 12993 ft 250 kts 292°
2026-04-27 13:45 -13.56900 -71.81840 12887 ft 238 kts 291°
2026-04-27 13:45 -13.56341 -71.83376 12594 ft 224 kts 289°
2026-04-27 13:46 -13.55844 -71.84849 12269 ft 211 kts 290°
2026-04-27 13:46 -13.55264 -71.86181 11980 ft 198 kts 299°
2026-04-27 13:46 -13.54579 -71.87367 11721 ft 188 kts 298°
2026-04-27 13:46 -13.54126 -71.88590 11469 ft 180 kts 282°
2026-04-27 13:47 -13.53971 -71.89855 11217 ft 176 kts 275°
2026-04-27 13:47 -13.53849 -71.91099 10964 ft 175 kts 276°
2026-04-27 13:47 -13.53730 -71.92337 10745 ft 173 kts 275°
2026-04-27 13:47 -13.53621 -71.93417 10767 ft 113 kts 275°
2026-04-27 13:48 -13.53573 -71.93922 10790 ft 38 kts 266°
2026-04-27 13:48 -13.53640 -71.94104 10801 ft 5 kts 245°
2026-04-27 13:49 -13.53641 -71.94107 10801 ft 0 kts 245°
2026-04-27 13:49 -13.53644 -71.94114 10800 ft 4 kts 246°
2026-04-27 13:50 -13.53667 -71.94167 10804 ft 10 kts 248°
2026-04-27 13:50 -13.53674 -71.94229 10807 ft 7 kts 273°
2026-04-27 13:50 -13.53667 -71.94304 10810 ft 14 kts 276°
2026-04-27 13:50 -13.53658 -71.94396 10815 ft 11 kts 275°
2026-04-27 13:51 -13.53677 -71.94450 10817 ft 7 kts 213°
2026-04-27 13:51 -13.53724 -71.94462 10818 ft 7 kts 189°
2026-04-27 13:51 -13.53767 -71.94442 10816 ft 9 kts 124°
2026-04-27 13:51 -13.53778 -71.94418 10814 ft 0 kts 114°